Theta_e
316 316 315 316 315 317 321 325 325 326 328 323 322 321 321 321 320 322 322 322 322 321 320 320 321 321 320 321 321 321 321 321 321 321 324 326 320 320 321 320 321 320 319 319 322 325 326 327 327 326 326 328 330 331 331 331 331 331 328 324 322 321 321 321 321 322 323 324 328 330 331 331 331 333 332 331 331 330 329 327 329 331 331 332 332 333 334 333 331 330 332 334 334 334 334 332 331
315 315 315 317 318 321 323 323 323 324 324 321 320 320 320 321 321 322 322 321 321 321 319 319 321 321 320 321 320 321 321 321 321 321 323 323 320 323 322 321 321 320 320 319 320 322 324 325 326 326 325 326 329 330 330 331 331 331 330 326 323 322 322 322 322 323 324 328 331 331 332 333 334 335 334 334 333 331 329 328 329 331 332 332 332 333 332 329 327 328 330 332 334 334 334 334 333
315 314 318 322 322 323 324 323 325 324 322 319 318 321 320 320 321 321 321 321 321 320 320 320 321 321 320 321 321 322 322 322 322 321 324 325 323 323 321 321 321 321 320 320 319 319 322 323 324 326 326 326 327 329 330 330 331 332 331 327 325 324 323 323 323 323 325 329 331 330 332 334 335 335 335 334 332 331 329 329 330 330 332 332 331 331 329 326 325 325 326 329 332 333 333 333 332
314 314 318 324 323 324 326 326 327 323 320 319 318 321 321 320 321 320 321 320 321 320 320 321 322 322 321 321 321 321 321 321 322 321 325 326 322 320 319 321 321 321 320 320 319 317 319 321 322 324 325 326 325 327 330 331 331 331 330 327 326 326 324 324 324 325 326 329 330 331 333 335 335 336 336 334 332 331 328 327 328 329 330 329 328 328 326 325 323 323 323 323 325 326 327 327 327
314 315 317 323 324 325 326 324 323 321 319 320 318 320 321 320 320 320 321 320 321 321 320 321 321 322 322 322 321 320 321 321 321 320 321 321 319 318 318 320 322 321 321 320 320 317 316 318 320 321 323 324 325 325 328 330 331 331 329 327 327 327 326 325 325 327 329 330 330 331 334 335 336 337 336 333 332 332 329 327 327 326 326 326 325 324 323 322 321 319 317 316 317 317 317 316 316
320 322 318 320 323 323 324 322 322 321 321 323 320 320 321 319 320 320 321 321 321 321 320 320 321 321 321 321 320 320 321 320 320 320 319 318 317 317 317 319 321 322 321 320 320 319 316 317 318 319 320 321 324 324 326 329 330 330 330 328 328 328 327 326 326 328 330 331 331 333 334 336 336 336 335 333 331 331 331 330 329 327 326 324 322 322 320 318 316 315 313 312 312 312 312 312 311
324 327 323 321 322 321 321 322 322 323 322 323 321 319 320 319 320 320 321 321 322 321 320 321 321 321 321 321 321 321 320 319 318 319 318 317 318 317 316 317 320 322 322 321 320 320 318 317 316 318 318 319 322 323 324 326 328 329 330 330 330 330 329 328 326 327 330 331 332 333 335 336 336 336 334 332 330 329 329 330 330 329 326 322 320 319 318 315 313 312 311 311 311 311 311 310 309
321 324 323 322 323 324 323 324 324 323 322 321 320 319 319 319 320 320 321 321 322 321 321 321 320 320 321 321 321 321 320 318 317 317 317 317 317 317 316 316 318 321 322 321 320 320 319 317 316 317 317 318 320 321 323 325 326 328 329 330 330 330 330 329 327 326 328 331 333 333 335 336 336 335 332 331 329 326 325 327 328 325 321 320 319 315 314 313 312 311 310 310 309 309 308 307 306
321 321 321 322 324 326 325 325 325 323 322 321 320 320 319 320 320 321 321 321 322 322 321 321 321 320 321 320 320 322 320 319 318 317 317 317 317 317 317 316 317 319 321 321 320 320 320 319 317 316 316 317 318 318 321 324 326 326 327 328 329 329 329 328 327 326 327 330 332 333 335 335 336 335 332 330 328 326 323 321 321 317 313 316 317 312 311 311 310 310 308 307 306 305 305 304 304
322 321 321 324 325 324 323 324 324 323 322 321 320 320 320 320 320 320 321 321 321 321 321 321 320 320 321 320 321 323 321 319 318 317 317 317 317 317 317 316 316 318 320 321 321 321 321 320 318 316 315 315 316 316 318 321 324 325 326 327 328 328 327 327 325 325 326 328 331 333 335 335 334 333 330 329 325 323 320 315 313 312 310 311 312 310 309 309 307 306 305 304 304 304 304 304 304
324 322 319 323 324 322 322 322 322 322 322 321 320 321 320 320 320 320 321 321 321 321 321 321 320 320 320 320 321 323 322 320 319 318 317 317 317 316 317 316 316 317 319 321 321 321 321 321 320 318 315 315 315 315 316 318 320 323 324 325 327 326 326 326 323 323 325 328 331 334 334 334 333 331 329 326 319 319 318 313 310 309 309 309 308 308 307 306 304 304 304 304 304 303 304 304 305
327 325 322 323 323 323 322 321 322 322 323 321 320 320 319 320 320 320 321 320 320 320 321 320 320 320 320 320 321 323 322 320 320 318 317 317 317 317 316 316 316 317 317 319 321 321 321 321 320 319 317 315 315 315 315 316 318 319 320 323 325 325 325 324 322 322 325 329 331 333 332 332 331 329 327 322 317 318 316 312 310 308 308 308 307 306 305 304 303 304 304 303 303 303 304 305 306
325 325 325 325 324 324 324 322 322 323 323 321 320 319 318 319 320 320 319 318 319 319 320 320 320 320 319 320 320 321 321 321 320 318 317 317 317 317 317 316 316 316 317 317 319 320 320 321 321 320 318 316 315 316 316 316 317 318 318 320 321 323 323 321 321 322 324 328 331 331 330 330 329 326 323 319 316 316 314 310 308 308 307 306 305 304 304 303 304 304 303 303 303 304 305 306 307
323 323 324 325 324 323 323 323 323 323 322 320 320 319 318 318 319 319 318 318 318 319 319 319 319 318 318 318 319 321 320 320 319 318 318 317 317 317 317 316 316 316 317 317 317 319 319 320 321 321 320 317 316 316 317 318 319 319 317 318 319 319 321 319 320 322 324 327 329 329 329 328 326 323 319 316 315 314 313 310 307 307 306 305 304 304 304 304 304 304 304 304 305 306 307 307 307
321 322 323 324 324 323 323 324 323 322 322 320 319 318 318 318 318 318 318 318 318 318 318 318 318 318 318 318 320 322 321 320 319 318 318 317 317 317 317 316 316 316 316 316 317 317 318 319 319 320 321 320 317 316 317 318 320 320 319 318 318 317 318 317 317 320 322 323 324 325 325 324 322 319 316 315 314 313 312 309 307 307 305 304 304 304 304 304 304 304 304 305 306 307 307 307 307
319 321 324 323 324 323 323 325 324 322 322 320 319 318 318 318 318 318 319 318 318 318 317 318 318 318 318 317 318 319 319 319 318 318 317 317 317 316 316 316 316 316 316 316 316 316 317 318 318 318 320 320 319 317 316 317 318 320 320 320 319 318 317 317 317 318 319 320 319 319 319 319 318 316 315 314 313 312 310 308 307 306 304 303 304 304 304 304 304 304 305 306 307 307 306 306 307
320 321 323 324 324 323 322 324 323 320 320 319 319 319 318 318 319 318 319 318 318 317 317 318 318 318 318 318 317 318 317 317 317 317 316 316 316 316 316 316 316 316 316 316 316 316 316 317 317 317 318 319 320 319 317 316 317 318 320 321 320 320 319 318 318 319 319 318 317 316 316 316 315 314 313 311 311 310 309 308 307 305 304 303 304 304 304 304 305 305 306 306 307 306 306 306 306
320 323 323 323 324 323 322 321 321 320 319 318 318 318 318 318 319 318 318 318 318 318 317 317 318 318 318 318 318 318 318 318 317 317 317 316 316 315 315 315 316 316 316 316 316 316 316 316 316 317 317 318 319 319 318 317 317 317 318 320 321 321 321 320 319 319 319 318 317 315 315 314 313 313 311 310 310 309 308 308 306 305 304 303 304 304 304 305 304 305 306 306 306 306 306 306 306
321 323 323 323 323 323 321 320 320 320 319 318 317 318 318 317 318 318 318 317 317 317 317 317 317 318 318 318 318 319 319 319 318 318 317 317 316 316 315 315 315 315 315 315 316 315 315 316 316 317 317 317 318 319 319 318 318 316 316 318 319 320 320 320 320 319 319 318 316 314 313 313 313 312 311 309 309 309 308 307 306 304 304 304 303 304 304 304 305 305 306 306 306 306 306 306 306
321 322 323 322 322 321 320 320 320 320 319 318 318 318 317 317 317 317 318 317 317 317 317 317 317 318 318 317 318 318 319 319 319 318 318 317 317 316 315 315 314 315 315 315 316 316 315 315 316 316 316 317 318 319 319 319 318 317 317 316 316 317 317 318 318 318 317 317 315 314 313 313 313 312 310 309 309 308 308 307 305 304 304 304 304 304 304 304 305 306 306 306 305 305 305 305 305
321 321 321 321 321 320 319 319 319 319 319 318 318 317 317 317 317 317 318 318 317 317 317 317 317 317 317 316 317 317 318 318 318 318 318 317 317 316 315 315 315 315 316 316 315 315 315 315 315 315 316 317 318 319 319 319 319 319 318 317 316 315 315 315 315 315 315 315 314 313 313 313 312 312 311 309 309 308 308 306 305 304 304 304 304 304 305 305 305 306 306 305 305 305 305 305 305
320 320 321 321 320 319 319 318 319 319 319 318 318 317 317 317 317 318 318 317 317 317 317 317 317 317 317 317 317 317 317 317 317 318 318 317 316 315 315 315 315 316 316 316 315 314 314 315 315 315 315 316 317 318 318 319 319 319 318 318 317 316 315 315 314 313 313 314 313 313 313 313 312 312 311 309 309 308 308 306 304 304 305 304 304 305 305 305 306 306 306 305 305 305 305 305 305
320 320 320 320 319 318 318 318 318 319 318 318 318 318 317 316 317 317 317 317 317 317 318 317 317 317 318 318 317 317 317 317 317 318 318 317 316 315 314 314 315 315 316 316 314 314 314 314 315 315 315 315 316 317 318 319 319 320 319 318 318 318 317 316 315 314 313 313 312 312 313 313 312 312 311 309 309 309 308 306 304 304 305 305 304 305 306 305 306 306 306 305 305 305 305 305 305
319 320 319 319 318 317 317 317 318 318 318 318 318 318 317 316 316 316 316 317 317 317 317 317 317 317 317 318 318 317 317 317 317 317 317 317 316 315 314 314 314 315 315 315 314 314 314 314 314 314 314 314 315 316 317 318 318 319 320 319 319 319 319 318 316 315 315 314 313 312 313 313 312 312 311 310 309 309 308 307 305 304 305 305 304 304 306 306 306 306 306 305 305 305 304 304 306
318 319 319 319 318 318 318 318 318 318 318 317 317 318 317 317 317 316 316 317 316 316 316 316 316 317 317 317 317 317 317 317 317 316 317 316 316 315 315 315 315 315 315 315 314 314 314 314 314 314 314 314 314 315 316 317 318 319 320 320 320 319 320 321 319 318 317 317 315 314 313 313 313 312 312 312 310 309 309 307 305 304 305 305 304 304 305 306 306 306 306 305 305 304 304 304 305
317 317 317 317 317 317 317 317 316 316 316 316 317 317 317 317 316 316 316 316 316 316 317 317 317 317 317 317 316 317 316 316 316 316 316 316 316 315 315 315 315 315 315 314 315 314 314 314 314 314 314 313 314 314 315 316 317 318 319 320 320 320 320 321 321 320 319 319 317 315 314 314 313 312 313 312 311 309 308 308 306 305 304 305 305 304 305 306 305 306 306 305 305 304 304 304 305
317 316 316 316 315 316 316 315 315 315 315 315 317 317 317 316 316 316 316 316 316 316 317 317 317 317 316 316 316 316 316 316 316 316 316 316 316 316 315 315 316 315 315 315 315 314 314 314 314 314 314 314 313 313 314 314 315 317 318 318 319 320 320 320 321 321 320 319 319 317 316 315 313 313 313 313 312 310 308 308 307 306 305 305 305 304 305 305 305 306 306 305 305 304 304 304 304
316 315 315 315 315 315 315 315 315 315 315 316 316 316 316 316 316 316 316 317 317 316 316 317 317 316 316 316 316 316 316 316 316 316 316 316 316 316 316 316 316 316 315 315 314 314 314 314 313 313 313 313 313 313 313 314 314 315 317 318 318 320 320 320 320 321 320 320 319 317 317 316 314 313 312 313 312 310 309 308 308 307 305 305 304 304 304 304 305 305 306 305 304 304 304 304 304
315 314 314 314 314 315 315 315 316 315 316 316 316 316 316 315 316 316 316 317 317 316 316 317 317 316 316 316 315 315 315 315 316 316 316 316 316 316 316 316 316 315 315 315 315 315 314 314 313 313 313 313 313 313 313 313 314 314 315 317 318 319 320 320 320 320 320 320 319 318 318 317 315 314 313 313 313 311 309 308 308 307 306 305 304 304 303 304 304 305 305 305 305 304 304 304 304
314 314 314 314 315 315 316 316 317 316 316 316 315 315 316 315 316 316 316 317 316 317 316 316 316 316 316 316 315 315 315 315 315 316 315 316 316 316 316 316 315 315 315 315 315 315 314 314 313 313 312 313 313 313 313 313 314 314 316 317 318 319 320 320 320 320 320 320 319 318 318 318 317 315 314 314 313 311 309 308 308 308 307 306 304 303 303 303 304 304 305 305 305 304 304 304 303
314 315 315 316 316 316 317 317 317 316 315 315 315 315 315 315 316 316 316 317 316 316 316 316 316 316 316 315 316 315 315 315 315 315 315 315 316 315 315 315 315 314 314 314 314 314 314 314 314 313 313 313 313 313 314 314 314 315 317 318 319 320 321 321 321 320 321 321 320 319 318 319 318 317 315 314 313 312 310 309 309 308 308 307 305 303 303 303 303 304 304 304 304 304 304 303 303
315 315 316 317 317 316 318 318 317 316 315 314 315 316 315 315 316 317 317 317 316 316 315 316 316 315 316 316 316 316 316 316 315 315 316 316 315 315 314 314 314 313 313 313 313 313 314 314 313 313 313 313 313 313 314 315 315 316 318 319 320 321 322 322 321 321 321 321 320 319 319 319 319 317 316 315 314 313 311 310 309 308 308 307 305 303 302 302 302 302 303 303 304 304 304 303 303
316 316 316 318 318 317 319 320 317 316 315 314 314 316 316 316 316 316 316 316 316 315 315 315 315 315 315 316 316 315 316 315 315 316 315 315 315 314 314 313 313 313 312 312 312 313 314 313 313 313 313 313 313 313 314 315 316 317 318 320 321 322 322 322 322 322 322 321 321 320 319 319 319 318 317 316 315 314 312 311 310 309 308 307 306 304 302 302 301 301 302 302 303 303 303 303 303
318 318 318 319 319 318 318 320 318 316 316 315 314 314 314 315 315 315 316 316 316 315 315 315 315 315 316 315 315 316 316 316 315 315 315 314 314 313 313 313 312 312 312 311 311 312 313 314 314 314 312 311 311 312 313 314 316 317 318 320 321 321 322 322 322 322 322 322 321 321 320 320 319 319 318 317 316 315 314 312 310 309 308 307 307 305 303 301 301 301 301 301 302 302 303 303 303
319 319 319 319 319 318 318 318 318 317 317 317 316 316 316 316 316 316 316 316 316 315 315 315 315 316 315 315 316 316 316 315 315 314 313 313 312 311 311 311 311 311 311 310 311 311 311 312 312 311 310 309 310 311 311 313 315 316 317 319 320 321 322 322 322 322 322 321 321 321 320 320 320 319 318 318 317 316 315 313 310 309 308 307 306 306 303 301 301 301 300 301 301 302 302 303 303
318 319 318 318 317 318 318 318 318 318 318 318 318 317 317 317 316 316 316 316 315 315 315 315 315 315 315 316 316 316 315 315 314 313 312 311 310 310 310 310 310 310 309 309 309 309 309 309 309 309 309 309 309 310 310 311 312 313 314 315 317 318 319 320 321 321 321 321 320 320 320 320 319 319 318 318 317 317 315 313 311 309 308 307 306 306 305 303 301 301 301 301 301 301 301 302 302
318 318 318 318 317 317 317 318 318 318 318 318 318 318 317 316 316 315 315 315 314 314 315 315 315 315 316 317 317 316 315 313 312 310 310 310 309 308 309 309 309 309 309 309 308 309 309 309 309 309 308 308 308 308 309 309 310 311 312 312 313 314 315 316 317 318 319 319 319 319 319 318 318 317 317 316 316 317 316 314 312 310 308 307 306 306 305 304 302 301 300 300 300 300 300 301 301
318 318 318 318 318 317 317 318 318 318 318 317 317 317 316 316 315 315 315 315 315 315 314 314 315 316 316 316 316 314 313 312 311 309 308 308 308 307 308 308 309 309 309 309 309 308 308 308 309 309 308 308 308 308 308 307 308 309 310 311 312 313 314 314 314 314 314 315 316 317 316 316 315 314 314 314 315 316 316 316 315 313 311 309 307 306 305 304 303 301 300 300 299 299 299 299 300
318 318 318 318 318 318 317 318 318 317 316 316 316 316 316 315 315 315 315 315 315 316 316 315 316 316 315 315 314 312 311 310 309 308 307 307 307 307 307 308 308 308 309 309 309 308 308 308 308 308 307 307 308 308 309 307 307 308 308 309 310 310 311 311 310 310 310 310 311 312 312 312 312 311 311 312 313 314 315 316 316 316 315 312 310 308 306 305 304 302 301 300 299 299 298 298 299
319 318 318 318 318 319 319 319 318 316 315 316 316 315 315 315 315 316 316 316 316 317 316 316 316 314 313 312 311 310 309 309 308 307 307 307 307 307 307 307 307 308 308 309 309 308 308 308 307 307 307 307 307 307 307 307 307 307 306 307 307 307 307 307 307 307 307 307 307 307 308 308 308 308 308 308 309 310 311 313 314 315 315 315 314 312 309 307 305 303 302 301 299 299 299 299 299
319 320 320 319 319 319 318 317 316 316 316 316 316 318 318 318 318 317 317 317 317 316 315 314 314 313 311 310 309 308 308 307 307 307 306 306 307 307 307 307 308 308 308 308 308 308 308 308 308 308 307 307 307 307 307 307 307 307 307 307 307 307 306 307 307 307 307 307 306 306 306 306 306 306 306 306 306 307 308 309 310 312 313 314 314 313 312 310 307 304 303 302 300 299 299 299 299
319 321 321 318 317 319 319 319 318 317 318 317 317 320 321 320 320 320 319 318 316 314 313 313 312 311 310 309 308 307 306 306 306 306 306 306 306 307 307 307 308 308 308 308 308 308 308 308 309 309 308 308 308 307 307 307 307 307 307 308 308 307 307 306 307 307 307 306 306 306 306 306 306 306 306 306 306 306 306 306 307 308 310 311 312 313 313 312 310 307 304 302 301 300 299 298 298
318 320 320 318 318 319 320 319 319 318 318 316 316 319 319 319 319 319 319 318 314 312 312 311 310 310 308 307 306 306 305 305 305 305 306 306 306 307 307 308 308 308 308 308 308 308 308 308 308 308 309 309 309 308 308 308 308 308 308 308 308 308 307 307 306 306 306 305 305 305 305 305 305 305 305 305 305 305 305 305 305 305 306 308 309 310 311 311 311 310 307 303 301 300 298 297 298
320 319 318 318 317 318 318 317 318 318 316 316 316 317 318 318 318 318 319 317 313 312 311 310 309 309 307 306 305 305 304 304 305 305 306 306 307 307 307 307 308 308 308 308 308 308 308 308 308 308 308 309 309 308 308 308 308 308 308 308 308 309 308 308 307 307 306 306 305 305 305 305 305 304 304 304 304 304 304 304 304 304 304 305 306 307 308 309 310 310 308 305 302 300 298 297 297
320 318 316 316 315 315 315 316 317 317 317 318 319 318 320 321 319 319 319 316 313 312 311 310 309 307 306 306 305 304 303 303 304 304 305 306 306 306 306 307 307 308 308 308 308 308 308 308 308 308 308 308 308 308 308 308 308 308 308 308 308 308 308 308 308 307 306 306 305 305 306 305 305 305 304 303 303 303 303 303 303 303 303 303 304 304 305 306 307 308 307 306 303 301 299 297 297
317 316 316 316 316 317 317 317 317 316 317 319 320 319 320 323 322 321 320 315 313 312 310 309 308 306 305 304 304 303 303 302 303 304 304 305 305 305 306 306 307 307 307 308 308 308 308 308 308 308 308 307 307 308 308 308 308 308 308 307 307 308 308 308 308 307 306 306 305 305 305 305 305 306 305 304 304 303 302 302 301 302 302 302 302 302 303 303 304 305 306 305 304 302 300 298 297
314 315 317 317 318 318 318 318 316 317 321 321 320 319 319 324 325 319 317 315 313 311 310 308 307 305 304 303 302 302 302 302 303 304 304 304 304 305 306 306 306 306 307 307 307 308 308 308 308 307 307 307 307 307 307 307 307 307 307 307 307 307 307 307 307 307 306 305 305 304 303 304 304 304 304 304 304 303 303 302 301 301 301 301 301 301 301 301 302 302 303 304 303 302 300 299 297
313 314 314 316 320 318 316 318 316 319 324 321 320 320 319 324 325 317 315 314 313 312 310 308 305 304 303 302 301 301 301 303 303 304 304 305 305 306 306 307 306 307 307 307 307 307 307 307 307 307 307 306 306 306 306 306 306 306 306 306 306 305 306 306 306 306 306 305 305 304 303 303 303 302 302 303 303 303 303 303 302 301 301 301 300 300 300 300 300 300 301 302 302 301 300 298 297
313 314 313 317 322 321 320 321 321 322 322 318 319 321 321 322 322 317 314 312 311 311 308 306 305 304 303 301 300 300 301 303 303 304 305 305 305 306 306 306 306 307 307 306 306 306 306 306 306 306 305 305 305 305 305 305 305 305 305 305 305 305 305 305 305 305 305 305 305 304 304 303 302 302 302 301 301 301 302 302 302 301 301 301 301 300 300 300 300 300 300 300 300 300 300 299 298
313 315 317 319 322 323 324 324 324 324 322 320 320 320 320 321 319 316 312 308 307 307 306 305 304 303 302 301 300 299 300 302 303 303 304 304 304 304 305 305 305 305 305 305 305 305 305 304 304 304 304 304 304 303 304 304 304 304 304 304 304 304 304 304 304 304 304 304 304 304 303 303 303 302 302 301 301 300 301 301 301 301 301 301 301 301 301 300 299 299 299 299 299 299 299 299 298
315 318 319 320 321 322 322 323 325 325 324 323 320 320 322 322 317 312 308 306 306 305 304 304 303 302 301 300 300 300 300 301 302 303 303 303 303 303 303 303 303 302 302 302 302 302 302 302 302 302 302 302 302 302 302 302 302 302 302 302 302 303 303 303 303 303 303 303 302 302 302 303 303 303 302 302 302 301 301 301 301 301 301 300 300 300 301 301 300 299 299 298 298 298 298 298 298
317 316 318 320 322 322 321 322 324 323 322 321 320 321 322 318 313 308 306 306 304 304 303 303 302 301 301 300 299 299 299 300 300 301 301 300 300 301 301 301 300 300 300 300 299 299 299 299 299 299 298 298 299 299 299 299 299 299 300 300 300 301 301 301 302 302 302 302 301 301 301 301 301 301 302 302 302 302 302 301 301 301 301 301 300 300 300 300 300 300 299 299 298 298 298 298 298
315 315 319 319 319 321 320 321 322 320 320 319 318 320 319 316 313 308 306 305 304 304 303 302 302 301 300 299 299 298 298 299 299 299 299 299 299 299 299 298 298 298 297 296 296 296 296 295 295 295 295 295 295 295 295 295 296 296 297 297 297 298 298 299 299 299 300 300 300 300 300 300 300 300 300 300 301 301 302 302 301 301 301 301 301 301 300 300 300 300 300 299 299 298 298 297 297
316 318 319 316 317 319 318 319 320 320 319 318 318 318 317 318 317 309 306 306 304 303 302 301 301 300 299 299 298 298 298 298 298 298 298 298 297 296 296 296 295 295 294 294 293 293 292 292 292 292 292 292 291 291 291 292 292 292 293 293 294 294 294 295 295 296 296 297 297 297 298 298 298 298 298 299 299 299 300 300 301 301 301 301 302 301 301 300 300 299 299 300 299 299 298 298 297
314 315 314 314 318 319 317 318 319 319 318 318 319 318 317 318 317 311 307 305 303 303 302 301 300 299 298 297 298 298 298 298 297 297 296 296 295 295 294 294 293 292 292 292 292 291 291 291 290 290 290 290 290 290 290 290 290 290 290 290 291 291 291 291 292 293 293 293 294 294 294 295 295 296 296 297 297 297 298 298 298 299 300 300 301 301 302 301 300 300 299 299 299 299 299 298 298
311 312 312 314 317 317 317 318 318 318 317 317 318 317 318 317 314 311 308 305 303 303 302 301 300 299 298 297 298 298 298 297 296 296 295 295 294 293 293 292 291 291 291 290 290 290 290 290 289 289 289 289 289 290 290 290 290 290 290 290 289 289 289 289 290 290 290 291 291 291 292 292 293 293 294 294 295 295 296 297 297 297 298 298 299 300 301 301 301 300 300 299 299 299 299 298 298
314 313 314 314 315 315 316 316 317 318 317 318 318 317 318 315 309 309 308 305 305 304 303 302 301 300 299 299 299 298 297 297 296 295 294 293 293 292 291 291 290 290 290 290 289 289 289 289 289 289 289 289 289 289 289 289 289 289 289 289 289 289 289 289 289 289 289 289 289 289 290 290 290 291 291 292 293 293 294 294 295 296 296 296 297 297 299 300 300 300 300 299 299 298 298 298 298
318 316 315 315 315 315 316 315 316 317 316 317 317 317 318 314 307 307 307 305 306 304 303 302 301 300 300 299 299 298 297 297 296 296 295 294 294 292 292 291 290 290 290 289 289 289 289 289 289 289 289 289 289 289 289 289 289 289 289 289 289 289 289 289 289 289 289 289 289 288 288 289 289 289 289 290 290 291 291 292 292 293 294 295 295 295 296 297 298 299 300 300 299 298 297 297 297
Wind_Speed
9 9 9 8 9 10 10 6 4 3 2 4 3 2 3 2 0 3 5 6 4 5 6 4 4 4 5 4 4 8 7 5 3 3 1 1 3 5 2 3 3 3 6 6 12 15 17 18 17 17 18 19 19 19 18 17 16 14 14 14 13 11 10 10 9 8 8 7 5 4 3 3 3 3 3 4 4 4 3 4 4 3 3 3 3 2 3 3 3 3 3 3 3 2 2 2 2
8 8 6 7 8 6 7 5 2 3 2 3 2 3 1 1 1 3 7 5 4 3 6 5 4 3 4 6 7 8 6 5 3 4 1 1 5 4 3 2 4 4 6 5 10 15 17 18 17 17 18 18 20 20 19 18 17 16 15 15 14 12 11 10 9 9 8 7 6 5 5 5 5 5 5 5 6 5 5 4 4 4 3 3 3 4 4 5 5 5 3 3 4 4 4 4 5
6 6 4 5 8 5 7 4 2 4 4 2 3 3 1 1 4 6 6 6 4 3 5 5 3 2 2 4 4 4 3 1 0 3 2 1 3 3 4 3 6 6 7 5 8 15 17 18 18 17 18 18 20 20 20 19 18 17 16 15 15 13 11 10 10 10 9 8 7 6 6 7 7 7 6 8 7 6 6 6 5 4 3 4 5 6 7 7 8 7 6 4 4 5 6 6 7
4 3 3 2 7 5 4 2 2 3 5 2 2 3 4 2 5 5 6 6 1 2 3 4 2 1 2 4 4 4 3 2 0 1 1 2 4 4 4 3 7 8 8 7 8 13 16 18 18 18 18 18 19 20 20 19 18 17 16 16 15 14 11 11 11 10 9 9 8 8 8 8 8 9 9 10 9 7 7 6 5 5 5 6 7 9 10 10 10 10 8 7 7 8 9 9 9
4 4 3 0 4 3 1 2 2 3 3 2 2 2 5 4 5 5 5 4 1 0 1 3 2 1 3 5 4 3 2 2 1 2 2 6 6 4 4 3 7 9 9 10 9 12 15 17 18 18 19 19 19 19 20 20 18 17 16 16 16 14 12 11 11 11 10 9 9 9 10 10 10 11 11 11 9 7 7 6 6 6 7 9 10 12 13 13 12 11 10 9 9 9 10 10 11
5 5 3 2 4 4 2 2 3 3 1 3 2 3 5 5 6 6 6 4 2 1 2 2 3 4 4 5 5 3 2 2 3 4 5 7 7 5 3 4 7 10 10 11 11 11 14 16 18 19 19 19 19 20 20 20 19 18 17 17 17 15 13 12 11 11 11 11 10 10 11 11 12 13 13 12 9 8 8 8 9 9 10 12 12 13 14 14 12 10 10 9 9 10 10 10 11
3 3 3 2 3 2 2 3 4 4 1 3 2 3 5 6 7 6 6 3 2 2 2 2 3 5 4 3 5 5 2 2 3 2 4 5 6 6 4 6 7 11 11 12 13 12 13 15 18 19 19 20 20 20 20 21 20 20 19 18 18 16 15 13 13 13 13 12 12 12 12 13 13 14 14 13 10 9 10 11 12 12 13 14 14 14 14 13 11 10 10 9 9 10 10 10 9
3 3 3 2 1 2 2 4 5 3 0 2 2 1 3 5 6 4 4 3 1 2 4 3 2 2 4 3 4 6 4 1 1 1 3 4 4 5 4 6 7 10 11 13 15 14 14 15 18 19 20 20 20 21 21 21 21 20 20 19 19 18 16 15 15 15 15 14 13 13 14 14 15 16 16 14 12 11 12 13 14 14 14 13 13 14 13 12 12 11 10 9 9 9 8 7 6
3 4 3 2 2 2 3 5 5 3 0 4 3 1 3 3 3 2 3 5 4 2 3 5 3 2 4 6 5 5 6 2 1 1 2 4 5 5 4 5 7 10 11 13 17 16 15 15 17 19 20 21 21 21 21 21 21 21 20 19 19 19 18 17 17 17 17 16 15 15 15 16 17 18 17 15 14 14 14 13 13 13 11 11 13 12 10 11 10 10 9 8 7 6 5 4 4
5 4 2 1 2 3 4 4 1 1 1 3 1 1 5 5 4 3 4 5 4 1 2 3 4 7 7 8 6 4 6 2 3 3 2 4 6 5 5 4 7 9 10 14 17 17 16 16 17 19 20 21 22 22 21 21 21 21 20 19 20 19 19 18 18 18 18 18 17 17 17 18 20 19 18 17 15 14 14 12 11 10 10 11 12 11 9 9 8 9 8 6 5 4 3 3 3
5 5 1 2 2 4 3 3 4 4 4 2 2 8 8 4 3 5 4 5 4 1 3 4 3 7 9 9 9 8 8 6 6 5 4 6 7 7 6 5 6 8 10 14 17 16 17 18 17 19 20 21 22 22 22 21 22 22 21 20 20 20 20 19 19 18 18 19 18 18 19 20 21 19 18 17 14 12 13 12 11 9 9 10 10 9 8 7 8 7 6 4 4 3 3 3 3
3 3 1 2 3 4 4 5 5 5 6 6 3 10 7 3 1 5 5 5 7 7 6 5 1 3 4 6 8 8 9 9 7 6 6 8 8 9 7 6 6 7 10 13 16 16 17 18 18 19 21 22 23 23 22 21 21 21 21 21 21 21 21 20 19 19 19 20 20 21 21 22 22 20 19 18 16 13 13 13 11 9 8 9 9 9 8 7 7 6 5 4 4 3 3 3 3
3 5 2 2 4 4 5 4 5 5 5 2 5 7 4 2 1 5 8 9 11 9 3 2 3 5 3 9 10 7 10 9 7 7 7 9 11 10 8 7 7 8 10 12 15 17 17 18 19 20 21 23 24 24 23 22 22 22 21 20 21 22 21 21 19 19 20 21 22 22 22 22 21 21 20 19 16 13 12 13 11 9 9 9 9 8 8 7 7 5 4 4 4 3 3 3 3
4 7 3 2 4 5 4 4 4 4 4 3 7 6 4 1 1 4 6 8 9 4 4 5 5 5 6 10 7 7 11 9 7 8 9 11 13 12 11 10 8 9 11 11 13 16 17 18 19 21 21 23 25 25 25 24 23 23 22 21 21 21 21 21 20 20 21 22 22 22 23 22 22 22 21 19 17 14 13 13 11 10 9 9 9 9 8 8 7 6 5 4 4 3 3 3 3
4 7 3 2 4 5 3 3 3 2 3 3 5 5 2 4 4 3 5 5 6 5 9 12 7 3 5 6 4 3 7 7 8 11 14 16 17 15 13 13 12 11 12 12 13 16 18 19 20 21 22 23 25 25 26 26 25 24 23 22 22 21 21 21 21 21 21 22 23 23 24 23 23 23 21 20 17 15 14 13 12 11 10 10 10 10 9 9 7 6 6 5 5 4 4 4 4
3 4 2 2 3 5 3 3 2 1 2 3 4 2 2 5 2 4 6 6 11 16 15 10 9 10 12 15 15 14 14 14 16 19 20 20 20 18 16 16 15 14 15 15 15 16 18 20 21 21 22 22 24 25 26 26 26 26 25 24 24 22 22 21 21 22 22 23 23 24 24 24 23 23 22 20 18 16 15 14 13 12 11 11 11 11 10 9 8 7 7 7 6 5 5 5 5
2 2 1 2 4 5 3 2 1 1 4 3 2 1 1 4 3 5 8 9 14 19 19 14 14 17 20 23 21 20 21 20 20 20 21 20 20 20 19 18 18 18 17 17 16 16 18 21 22 22 22 22 23 25 26 26 26 26 27 26 26 25 23 23 22 23 23 23 24 24 24 24 23 23 21 19 18 16 16 15 14 14 13 12 13 12 11 11 10 9 8 8 7 7 6 5 5
2 1 3 4 5 5 4 5 5 4 5 6 7 8 5 5 5 4 5 9 13 17 21 20 17 19 23 25 22 22 21 18 17 17 18 19 21 22 21 20 19 19 19 18 18 18 18 20 22 23 23 23 23 24 25 26 26 27 27 27 27 27 26 25 25 25 25 25 25 25 25 24 23 22 21 19 18 17 17 16 16 15 14 14 14 13 13 12 11 10 10 9 9 8 7 6 6
5 2 3 4 4 6 8 9 8 6 6 9 12 13 10 9 10 8 5 8 11 13 19 21 19 19 21 21 21 24 22 19 18 18 19 21 23 24 23 22 21 20 20 19 18 19 19 20 22 24 24 24 25 25 25 26 27 27 27 28 29 29 29 28 27 27 27 27 26 26 25 25 24 23 22 21 20 18 17 17 17 17 16 16 15 14 14 13 12 11 11 11 10 8 7 7 7
8 6 3 5 6 8 11 13 12 11 11 10 10 11 12 13 15 11 8 10 9 11 16 18 18 18 17 18 17 18 19 18 19 20 20 22 24 24 23 22 22 21 20 18 17 18 20 21 22 23 25 26 27 27 26 26 27 27 28 28 29 30 31 31 30 29 29 28 28 27 26 25 24 24 23 22 21 20 19 18 19 19 18 17 16 16 15 14 13 12 12 11 10 9 8 7 7
7 7 4 6 7 8 12 17 18 14 10 9 11 11 12 15 15 11 10 8 6 12 19 18 20 22 21 23 21 18 17 17 20 22 23 24 24 24 22 21 21 21 21 20 18 17 19 20 21 22 24 27 28 29 28 28 28 28 28 28 28 29 31 32 32 31 31 30 29 28 27 26 25 25 25 24 23 21 20 20 20 21 20 18 18 18 16 15 14 13 13 12 11 10 9 8 8
5 7 10 11 11 9 13 19 16 11 9 11 12 10 12 14 13 13 10 8 9 16 22 24 27 28 27 27 25 24 23 22 22 24 26 25 24 22 20 19 18 19 21 22 21 18 17 18 20 21 24 27 29 30 30 30 30 29 29 29 28 28 30 31 32 33 32 32 31 30 28 28 27 27 27 26 25 23 22 22 22 22 21 20 19 19 18 16 15 14 14 13 12 11 10 9 9
6 7 12 14 14 12 16 19 15 11 9 12 13 12 16 16 13 17 15 16 20 23 25 28 31 31 30 28 25 25 25 24 22 24 26 25 24 22 21 19 17 17 20 22 22 20 18 17 18 20 23 26 29 30 31 31 32 31 31 30 29 28 28 30 32 32 33 33 33 31 30 30 28 28 28 27 26 24 23 23 23 24 23 21 20 20 19 17 16 16 16 15 13 12 11 10 10
8 6 9 14 18 18 21 21 17 14 12 15 17 15 17 15 13 17 20 24 29 28 29 31 32 32 31 28 25 25 24 24 23 23 25 25 24 22 21 19 17 16 19 21 22 21 20 18 17 19 21 24 27 29 31 33 33 33 32 31 30 28 27 28 30 30 31 33 34 33 32 31 30 30 30 28 27 25 24 24 24 24 24 22 21 21 20 18 17 17 17 16 15 13 12 11 11
9 7 9 14 17 18 19 19 19 17 17 19 16 15 18 19 17 19 24 30 32 30 30 30 29 29 28 27 24 23 23 24 23 23 24 24 22 20 19 18 17 18 20 20 20 21 20 18 17 18 19 22 25 28 31 32 33 34 34 32 31 30 28 28 28 29 29 30 31 32 33 32 31 31 31 28 27 26 25 25 25 25 25 23 22 22 21 19 19 19 19 18 16 15 14 13 12
6 7 9 11 12 16 19 21 22 21 21 19 11 13 19 20 16 16 24 29 28 25 22 21 22 23 22 22 22 22 23 23 23 23 23 23 21 20 20 21 22 22 23 22 22 22 21 19 18 17 17 19 22 26 29 31 33 35 35 34 33 32 30 29 29 30 30 29 29 30 31 31 32 32 31 29 27 25 26 26 26 26 26 25 23 23 22 20 20 21 20 19 18 17 16 14 13
8 10 12 15 15 20 23 23 27 25 23 22 13 10 18 19 10 10 22 25 22 22 20 19 19 20 20 20 22 23 23 24 24 24 24 23 22 23 23 23 24 23 23 24 25 25 23 22 21 20 19 19 20 24 27 30 32 34 35 35 34 34 33 31 31 32 32 30 30 31 31 30 32 33 32 31 28 26 27 27 27 26 26 26 24 24 23 22 22 22 21 20 20 19 17 16 15
9 10 12 16 17 22 24 22 27 22 16 20 15 9 16 16 8 14 25 23 20 23 22 21 20 21 22 23 24 24 25 25 24 23 23 23 21 22 23 23 23 22 22 23 24 25 25 24 24 23 22 22 22 22 24 28 30 32 34 35 35 35 34 33 33 33 33 32 31 32 31 30 31 33 33 32 29 27 28 28 28 28 27 26 25 24 24 23 24 24 23 22 22 21 20 18 17
7 6 7 13 13 16 21 20 25 21 10 11 8 3 10 8 9 20 26 20 19 22 20 20 20 21 24 25 26 27 27 26 24 23 22 21 20 20 22 22 21 21 21 22 21 23 24 25 24 24 24 24 25 23 23 25 28 30 33 34 35 35 35 35 34 34 34 33 32 32 32 31 32 33 34 33 31 29 29 29 29 29 27 27 26 25 25 25 26 26 25 24 25 24 22 20 19
6 5 5 9 9 8 14 17 19 15 6 12 10 1 5 6 11 17 18 13 13 16 16 19 22 25 28 28 29 29 29 28 25 23 22 21 19 18 18 18 18 18 19 20 20 21 21 21 23 23 24 25 26 25 24 25 26 28 31 33 34 35 35 36 36 35 35 34 34 33 33 32 33 36 36 33 31 29 30 31 31 29 28 27 27 27 26 27 28 27 26 26 26 25 24 22 21
6 7 5 5 5 4 11 11 6 3 6 14 9 2 5 6 13 15 13 10 11 13 17 24 28 31 31 29 28 29 28 25 24 22 20 17 14 12 13 13 14 17 17 16 17 18 17 17 19 21 23 24 24 24 24 24 25 27 30 32 33 34 35 35 35 35 35 36 35 35 34 33 34 37 37 34 32 30 31 33 32 30 29 29 28 28 28 29 30 29 28 27 27 27 26 24 23
4 5 4 4 4 4 9 10 5 6 3 11 8 2 6 7 11 13 14 16 20 20 23 29 32 32 31 29 26 25 24 23 20 15 9 8 7 8 10 10 10 11 12 11 12 14 15 15 16 17 19 20 21 22 22 23 23 25 28 30 31 32 33 34 34 34 34 35 36 35 34 33 34 37 37 36 35 33 33 35 34 32 31 30 30 29 30 31 31 31 29 28 28 28 28 27 26
4 4 5 5 6 5 5 5 5 9 4 6 7 3 5 5 8 16 19 22 25 25 28 32 33 31 30 27 24 23 22 17 11 5 1 2 6 9 11 11 9 10 10 9 9 9 11 13 13 13 14 14 16 19 20 20 22 23 25 26 28 29 31 32 32 33 33 34 35 36 35 34 34 36 37 38 37 36 35 36 36 34 33 32 31 31 31 32 32 32 31 30 29 30 30 29 28
4 4 5 6 6 6 3 4 1 7 5 5 7 7 8 7 10 20 23 23 24 24 28 31 30 27 26 26 25 22 15 7 9 7 4 5 8 10 10 11 11 12 11 9 8 8 8 9 9 9 10 9 11 14 16 17 20 22 22 23 25 26 28 29 30 31 31 32 33 34 35 34 34 35 36 37 37 36 36 37 37 36 35 34 33 33 33 33 33 34 32 31 31 31 31 30 29
5 5 5 6 6 7 6 5 6 4 4 6 7 9 9 7 8 15 21 24 24 23 28 31 27 26 29 27 17 11 9 16 16 11 8 7 6 5 3 3 4 5 5 6 6 7 7 8 7 6 6 6 6 10 12 13 17 19 20 21 22 23 25 26 26 27 27 28 30 31 33 33 33 32 33 34 35 36 36 38 38 38 37 36 35 35 34 34 35 35 34 32 32 32 32 31 30
9 9 7 8 7 6 8 8 8 10 10 9 9 9 8 7 7 12 23 28 26 23 25 27 27 28 24 12 10 15 19 21 17 13 11 9 9 9 7 6 5 4 4 4 3 3 4 4 3 1 2 3 3 5 8 8 11 14 16 18 20 21 23 24 25 25 24 25 26 28 30 31 31 31 32 32 32 33 34 37 38 39 39 39 38 37 36 35 35 36 35 34 34 34 33 33 32
9 9 8 8 7 7 8 9 10 9 9 7 6 8 8 9 9 14 25 26 21 18 19 24 28 20 7 13 14 17 23 24 20 18 16 14 15 15 14 13 11 10 11 11 9 8 6 4 3 4 3 1 1 1 2 2 4 6 9 11 13 16 18 20 21 23 23 25 26 28 30 31 31 32 32 30 29 29 31 35 38 39 41 41 39 38 37 35 34 35 36 36 36 35 35 35 35
8 7 8 8 7 8 8 11 12 6 4 4 5 7 7 9 13 18 22 17 12 15 18 20 15 5 15 18 19 23 25 24 22 20 19 18 18 19 19 18 16 15 15 15 14 13 11 10 8 8 8 6 4 2 2 1 0 2 3 4 6 8 11 13 15 16 17 20 23 27 29 30 30 30 29 28 28 29 31 33 37 39 41 41 40 39 38 36 36 36 37 37 37 37 36 37 37
7 6 6 6 6 7 8 10 9 2 0 3 6 7 7 11 16 17 17 12 13 22 19 5 10 20 21 22 25 25 24 23 23 21 20 20 20 20 21 21 21 20 19 18 17 16 15 15 13 11 11 10 8 5 3 2 2 1 1 2 4 4 7 9 10 12 12 13 15 18 22 24 24 24 24 25 27 28 29 31 34 37 39 41 41 40 40 39 38 38 38 38 38 38 37 38 39
5 5 5 6 5 6 6 4 5 5 3 7 9 7 6 11 15 13 15 14 15 14 3 19 24 25 26 26 25 24 25 23 22 21 22 21 21 22 23 24 23 23 23 22 21 19 18 18 16 14 13 12 11 8 6 5 4 4 3 2 2 3 4 7 8 9 11 11 12 13 14 16 17 19 20 20 22 23 25 27 30 33 36 39 40 40 41 41 41 40 40 39 40 40 40 40 41
5 6 6 6 6 7 6 4 7 6 6 6 6 5 5 8 9 7 8 10 7 7 23 27 25 26 27 27 26 25 24 22 22 23 23 24 25 25 25 25 25 25 26 25 24 22 21 21 20 18 17 16 15 13 11 10 9 8 8 7 6 5 4 6 7 8 10 10 11 11 12 13 13 15 16 17 17 18 20 22 24 28 32 35 37 39 40 41 41 42 42 42 42 42 43 43 42
5 5 4 5 5 5 5 7 7 5 5 3 3 3 3 5 6 6 7 5 4 15 21 20 22 25 25 25 25 24 24 23 24 25 25 28 28 28 27 27 27 27 28 26 25 24 23 23 23 22 21 20 20 18 17 16 15 15 14 13 13 12 10 9 9 10 12 13 13 12 12 11 11 12 13 14 15 16 16 17 19 23 27 31 34 36 38 39 40 42 42 43 43 43 43 44 44
4 3 4 5 5 6 6 6 4 1 3 3 2 2 4 5 5 9 11 2 8 13 13 14 20 22 22 24 23 23 24 24 25 27 28 29 29 30 30 29 29 29 29 27 26 26 25 25 25 25 24 24 24 22 21 20 19 19 18 17 17 17 15 12 9 9 11 13 14 14 13 13 12 11 11 12 13 14 14 15 16 18 21 26 30 33 35 37 39 40 42 43 43 43 44 46 46
3 2 3 5 4 4 3 2 2 4 4 5 5 4 5 5 5 13 12 5 11 9 9 11 16 20 21 22 22 23 24 24 26 28 28 30 30 31 31 30 30 29 28 27 28 29 28 27 27 26 26 26 25 25 23 22 21 20 19 18 18 19 18 15 13 11 10 12 13 14 15 15 14 13 11 11 11 12 12 13 13 15 17 20 24 29 32 33 35 38 40 42 43 43 45 46 46
2 2 1 2 1 2 3 4 4 4 3 4 5 6 3 4 5 11 7 8 9 7 8 8 12 17 18 19 20 20 21 23 25 27 28 29 29 29 29 29 28 27 27 27 27 28 28 28 28 27 27 27 26 25 24 23 22 22 20 19 19 19 18 17 16 14 13 12 13 14 15 16 17 16 14 12 12 13 13 12 12 13 14 16 18 22 26 29 32 35 38 41 42 44 45 45 46
2 2 2 2 4 4 4 5 3 3 3 4 6 7 3 4 6 5 2 8 6 5 7 7 11 15 15 17 18 18 20 22 25 27 27 27 27 27 26 26 26 26 25 25 25 25 25 25 25 25 26 26 25 25 24 23 22 22 21 20 20 19 19 18 18 17 15 14 13 13 15 16 18 18 18 16 14 13 14 14 14 13 14 14 15 17 20 24 28 31 35 39 41 43 44 45 46
1 2 3 4 5 4 3 4 2 1 2 4 7 9 7 3 4 2 5 5 9 8 6 6 10 13 15 16 17 19 21 23 25 25 25 25 25 24 23 23 24 24 23 23 22 22 22 22 22 23 24 24 24 23 23 22 21 21 21 20 20 20 20 19 19 19 19 18 16 14 14 15 16 18 20 20 19 16 14 15 15 15 14 15 15 16 17 19 22 25 30 35 39 42 43 44 45
1 1 2 4 4 1 1 0 1 1 3 3 5 2 7 3 3 2 6 5 8 8 8 8 8 11 14 15 16 19 21 23 23 23 23 22 21 21 20 21 21 20 20 20 20 20 20 20 20 20 21 21 22 22 21 20 20 20 20 21 21 21 20 20 20 21 21 20 19 17 15 15 15 16 17 20 21 21 19 17 16 16 16 16 15 16 16 17 19 21 25 30 35 40 42 43 44
2 2 1 1 2 0 1 0 1 2 4 2 5 7 1 4 6 4 5 7 7 8 11 12 12 13 14 14 16 18 21 22 22 22 22 20 20 19 19 19 19 18 18 18 17 17 18 18 17 18 19 19 20 20 19 18 18 18 18 19 20 20 20 20 20 20 20 20 19 19 18 17 16 15 15 16 18 20 22 21 19 18 18 18 17 17 16 16 18 20 22 25 30 35 39 42 44
4 3 3 3 1 1 2 2 2 3 3 2 4 7 1 4 5 3 6 8 9 15 18 17 17 17 16 16 16 17 20 22 21 21 20 19 19 18 17 18 17 17 16 16 15 15 15 15 15 16 16 17 17 18 17 17 16 16 16 16 17 17 18 19 19 19 19 19 19 18 18 18 17 16 16 16 15 17 20 21 21 20 20 19 19 19 19 18 18 19 21 23 26 29 33 38 42
4 1 2 3 2 2 3 2 3 3 3 5 5 4 2 4 1 2 9 11 14 19 20 20 20 18 17 17 16 17 19 20 19 19 18 17 16 15 16 16 15 15 14 14 14 15 15 15 15 15 15 15 15 15 15 15 15 15 15 15 15 15 15 16 16 17 18 18 18 18 18 18 17 17 17 17 16 17 18 20 21 21 21 20 20 20 21 20 20 20 21 22 24 25 29 34 38
2 2 3 1 3 4 2 3 3 1 3 5 4 2 3 1 4 6 9 11 14 16 17 18 18 16 16 16 15 16 17 17 16 16 15 14 13 13 14 13 13 13 13 13 14 14 15 15 15 15 15 14 13 13 12 13 13 13 14 14 14 14 14 14 14 15 16 17 18 19 19 18 18 17 17 17 17 18 18 19 20 21 21 21 20 20 20 21 22 22 22 23 24 24 26 30 33
1 2 1 3 2 4 1 3 2 1 2 5 3 3 4 1 3 5 8 8 9 9 11 14 15 14 15 14 14 14 14 14 14 13 13 12 11 12 11 11 12 12 12 13 14 14 15 14 14 14 14 13 13 12 11 11 11 12 13 14 14 14 14 14 14 14 14 15 16 17 18 18 19 19 19 18 18 18 18 19 19 20 21 21 20 20 20 21 22 23 24 24 25 24 25 28 30
3 1 2 2 2 3 2 1 1 1 4 5 4 6 6 3 2 3 7 7 7 5 6 10 12 12 13 12 12 12 12 12 11 10 10 9 10 10 11 11 11 12 12 13 13 14 14 14 14 14 14 14 14 14 13 13 13 14 14 14 14 13 13 13 13 13 13 14 15 16 17 18 19 20 20 19 19 19 18 18 19 20 21 21 21 21 20 20 21 23 24 25 26 25 26 28 29
4 3 1 1 0 1 1 1 1 4 6 4 4 7 6 4 2 4 7 7 7 6 5 6 7 9 11 11 12 12 11 10 8 8 7 8 8 9 10 10 11 12 12 12 13 14 14 14 14 15 15 15 15 15 16 16 17 17 16 16 15 14 13 12 12 12 13 13 14 15 16 17 18 19 20 21 21 21 21 21 21 21 21 21 22 22 22 22 22 22 23 24 26 26 28 29 29
3 1 2 2 2 3 2 2 3 4 6 5 5 7 5 1 2 1 7 9 8 7 5 5 6 8 9 10 10 9 7 6 6 6 6 6 8 8 9 10 11 12 13 13 14 15 15 15 15 16 16 16 17 17 18 19 19 19 19 18 17 17 16 16 15 15 15 14 14 14 15 15 16 17 19 20 21 23 24 24 24 24 24 23 23 22 23 24 24 24 24 24 25 25 28 30 30
2 1 2 1 1 1 1 3 3 3 4 5 6 7 4 1 3 3 8 8 7 7 5 5 8 9 9 9 8 6 6 5 4 3 3 5 6 7 8 9 10 11 12 13 14 15 15 15 15 16 17 18 19 19 20 20 20 20 20 20 21 21 21 22 21 20 20 19 18 17 17 16 16 17 18 19 20 22 23 25 26 26 27 27 26 25 23 23 25 25 25 25 26 26 28 29 30
3 2 2 3 2 0 2 5 5 4 5 5 7 8 4 2 3 3 8 6 6 9 8 7 10 12 11 10 8 7 7 5 4 3 2 3 4 5 6 7 8 10 11 11 12 13 13 14 15 16 17 18 19 20 20 20 21 21 21 22 23 24 25 26 26 26 25 24 24 23 22 21 21 20 20 20 20 21 22 23 25 26 27 28 29 29 27 26 25 25 26 26 26 27 29 30 30
Wind_Direction
297 304 316 327 334 335 329 325 288 231 206 247 262 62 87 49 154 298 42 79 88 59 26 3 318 309 300 308 306 302 298 272 296 352 175 153 344 332 4 184 260 263 252 235 210 213 212 211 211 209 207 209 212 214 213 208 205 197 191 191 191 192 191 190 188 187 187 186 187 195 205 214 211 206 203 195 197 200 195 180 161 144 152 158 169 184 194 212 245 281 275 261 269 278 264 264 274
300 302 319 334 339 328 311 331 304 270 247 248 23 49 133 152 97 42 43 46 51 28 348 347 317 286 272 286 284 290 299 247 264 3 95 17 348 333 13 212 233 234 251 252 212 214 216 214 215 213 211 212 213 214 214 211 207 201 197 197 197 198 197 195 192 192 191 188 192 202 210 212 206 202 196 189 190 195 194 177 164 161 167 179 196 207 225 249 274 290 288 288 283 268 260 258 266
313 316 354 340 321 281 279 300 246 296 307 328 49 46 29 8 45 52 50 57 45 355 336 333 311 294 253 250 272 272 294 325 287 15 63 22 340 324 340 251 227 228 240 251 216 214 217 217 217 216 216 215 216 216 215 213 210 206 202 201 202 204 203 199 196 197 196 191 198 209 214 215 209 206 200 199 203 205 201 186 176 177 190 208 219 231 249 269 280 284 282 284 276 260 261 262 266
327 336 62 326 295 259 252 263 234 302 301 326 56 79 78 40 33 48 44 52 28 316 333 319 294 254 270 248 295 293 285 26 16 10 80 263 306 304 303 265 228 228 232 238 221 214 218 218 218 218 218 218 219 220 217 216 214 210 207 205 207 209 208 203 201 201 197 195 202 212 217 216 212 210 209 211 218 224 212 198 198 199 216 235 243 252 263 276 281 280 279 271 266 262 265 266 270
6 17 59 269 283 281 281 297 276 270 278 340 38 60 70 57 38 44 14 1 204 232 300 297 281 227 282 269 276 305 354 44 301 315 302 284 300 293 280 262 230 228 232 233 226 216 219 218 218 220 219 219 220 222 221 220 218 214 211 209 211 211 212 209 207 203 199 201 206 212 216 217 216 216 221 225 231 239 235 226 230 234 243 254 260 265 271 276 277 279 279 271 267 267 269 270 273
27 6 345 277 266 297 301 276 273 258 283 27 15 2 28 40 38 25 333 319 148 160 270 253 284 296 282 253 237 245 333 339 312 309 299 304 302 295 275 255 233 229 232 229 229 221 221 219 217 221 221 220 219 222 223 223 222 219 215 212 215 214 215 216 212 207 204 208 208 212 216 219 220 223 233 241 244 250 256 254 253 256 259 265 267 269 273 273 273 277 276 272 270 270 271 273 275
38 323 282 265 258 271 273 264 272 275 5 48 19 355 359 18 26 4 325 341 119 159 169 193 273 307 285 234 233 230 222 296 305 300 308 317 303 301 270 250 238 233 233 225 230 226 223 221 218 221 223 222 220 222 223 224 225 224 222 217 218 218 219 220 219 214 212 212 208 212 217 220 223 230 240 246 255 264 267 266 264 265 267 271 269 265 267 271 275 274 269 269 269 270 271 273 277
48 312 285 290 267 200 233 265 263 267 193 89 69 17 351 7 11 346 318 320 248 197 166 191 247 283 275 244 238 212 186 296 275 270 348 347 329 324 277 253 237 234 235 224 227 228 225 223 220 221 223 224 222 223 223 223 225 226 227 223 222 221 222 222 222 219 216 214 210 213 218 221 225 234 244 249 261 271 272 273 273 271 269 267 265 264 265 270 276 272 269 268 266 266 268 271 275
359 310 300 282 286 248 239 249 246 262 291 74 50 358 27 14 356 336 309 298 282 296 169 170 170 217 301 302 277 210 195 219 235 258 2 354 347 340 299 263 235 236 238 226 228 230 228 227 223 223 224 225 225 225 224 223 223 225 227 226 226 224 223 223 221 220 217 216 215 215 218 224 228 236 245 253 262 273 279 278 274 269 262 254 256 266 267 267 271 271 268 265 262 262 263 266 269
288 259 293 300 283 271 258 252 259 331 39 86 90 43 50 32 358 325 297 300 306 355 147 162 193 232 284 309 293 212 197 239 278 263 302 332 337 334 315 280 242 237 238 230 233 235 231 231 227 224 225 226 226 226 225 224 223 224 226 226 227 225 224 224 223 221 217 216 217 218 220 226 233 238 246 254 263 276 283 278 268 261 256 250 253 262 261 261 264 263 261 256 254 253 254 258 263
273 223 240 319 287 270 288 344 355 337 339 337 111 90 79 64 0 303 272 276 292 288 210 202 207 240 263 285 274 245 233 259 280 268 276 312 326 325 317 293 264 243 239 234 237 240 236 235 232 227 226 226 227 227 226 225 224 224 226 226 226 225 224 225 226 222 216 216 218 220 224 230 236 243 249 258 268 278 278 273 265 257 255 255 256 259 258 258 256 249 241 235 236 239 249 257 266
285 248 204 279 287 286 328 356 327 324 328 308 68 86 87 87 330 294 315 321 310 305 262 207 151 326 275 277 275 251 234 249 268 264 273 301 318 320 314 301 288 260 245 240 239 243 240 238 237 233 229 228 227 228 228 226 226 225 226 226 226 225 225 226 228 224 217 217 218 222 227 232 239 247 254 263 272 275 273 267 261 254 252 256 257 258 258 252 245 234 222 224 231 239 249 256 264
282 312 342 279 293 302 323 324 303 312 311 330 93 92 85 74 299 318 342 333 307 306 324 126 17 357 287 275 279 252 238 252 256 245 267 298 311 313 305 295 290 275 259 250 245 245 245 241 240 238 235 231 228 227 228 228 227 228 227 227 227 226 225 226 226 223 217 218 222 226 232 236 242 250 258 266 271 272 270 261 255 251 250 252 252 252 248 240 234 226 223 230 240 248 253 259 264
288 331 342 285 309 300 294 275 291 314 303 43 100 117 100 91 277 332 323 308 305 327 18 332 322 336 284 278 272 235 241 250 241 242 271 294 304 306 296 290 284 274 266 260 251 246 248 245 241 239 239 235 229 227 227 228 228 229 229 228 228 226 225 226 225 221 218 221 226 230 236 241 247 254 261 266 269 270 266 259 255 251 250 250 247 241 235 228 225 224 229 238 245 250 253 261 272
296 337 332 265 302 290 269 248 288 332 305 52 107 128 89 281 235 260 282 280 290 299 318 308 288 274 274 286 293 277 263 253 253 265 283 293 298 298 290 288 284 273 266 263 255 247 246 247 245 240 240 237 232 229 227 227 228 228 230 229 229 227 225 226 226 225 223 225 231 235 239 244 250 256 260 264 267 268 261 255 253 250 249 248 241 233 228 224 223 223 227 234 236 238 244 255 270
293 331 322 251 284 285 267 242 249 245 306 70 116 144 19 311 256 230 268 262 274 287 296 286 264 263 263 271 276 286 287 277 279 282 287 292 293 294 288 285 283 274 267 263 259 253 247 246 248 245 243 240 234 232 230 230 229 228 229 229 228 227 227 228 227 228 229 231 234 237 241 245 249 254 258 261 262 259 253 249 248 247 245 243 237 230 227 225 224 224 225 226 225 227 236 248 260
287 323 263 259 266 264 276 279 270 321 324 17 120 135 61 312 293 243 265 261 271 288 289 273 266 266 267 277 279 278 282 280 284 286 287 289 289 289 285 282 280 274 269 265 263 258 251 247 248 249 248 244 239 235 233 233 231 230 229 228 227 228 229 230 230 231 232 234 236 238 241 245 249 252 255 257 254 249 247 246 245 243 241 238 232 228 227 225 225 223 222 220 221 224 231 242 253
219 194 218 246 245 257 332 333 327 351 340 337 327 325 320 314 317 279 275 267 269 283 285 282 274 268 271 284 282 272 278 280 280 285 285 286 287 288 288 286 281 276 272 266 263 260 256 252 249 249 250 249 244 240 238 236 234 232 229 227 226 228 229 231 232 233 234 236 238 239 241 245 248 252 253 252 247 244 244 245 245 242 239 235 230 228 227 225 223 220 218 217 219 224 230 242 252
212 233 241 245 250 278 309 309 316 342 327 317 313 317 322 320 319 304 283 277 284 289 285 287 284 278 278 283 277 265 271 277 274 278 278 283 289 290 291 291 286 281 276 270 265 263 259 254 250 249 250 251 248 245 242 239 236 234 231 229 228 228 230 231 233 234 236 237 239 240 242 244 247 249 251 249 244 242 242 242 243 240 237 234 229 228 227 225 223 218 215 215 219 225 232 242 253
215 223 244 248 260 286 297 306 315 317 314 318 311 317 319 304 300 291 276 279 280 273 276 286 285 283 288 297 295 275 273 277 275 275 273 280 287 289 290 290 291 289 285 280 270 262 258 255 253 250 249 248 248 246 244 241 240 238 235 233 231 229 230 231 232 233 235 238 239 240 242 244 246 247 248 246 243 240 239 238 238 237 234 232 228 228 228 226 223 219 216 217 221 228 235 244 253
207 204 228 263 286 301 297 304 309 308 312 314 305 307 303 295 295 282 274 284 264 257 269 277 280 287 295 301 304 294 286 286 283 280 277 280 284 287 288 287 289 290 288 283 275 265 259 257 255 252 250 247 246 245 245 243 242 241 239 237 235 232 232 231 231 231 233 236 238 240 242 244 244 246 246 245 242 239 236 235 235 234 232 230 229 229 229 227 225 221 219 220 224 231 239 247 253
224 239 249 263 279 286 283 291 299 305 305 295 290 292 294 297 293 276 265 261 255 264 274 279 281 286 291 292 294 290 285 282 281 278 278 281 286 288 289 287 282 280 280 279 279 275 265 259 255 252 250 248 245 245 245 244 242 243 243 242 240 237 235 233 232 232 232 234 236 238 240 242 243 243 245 244 242 239 235 233 232 233 232 229 229 231 231 228 225 223 222 223 227 234 242 250 255
225 251 254 263 272 275 282 288 292 298 298 287 281 283 291 293 285 279 268 258 265 271 276 280 282 284 287 288 288 286 282 280 275 271 272 277 282 287 289 288 282 274 272 276 280 280 273 264 257 252 250 249 247 245 244 243 243 243 244 245 244 243 240 236 234 233 234 235 236 237 238 239 241 242 243 242 241 239 235 233 232 233 233 230 230 232 233 229 226 224 224 226 229 236 244 251 256
243 246 260 272 276 276 281 286 286 288 287 278 279 282 282 278 282 285 275 269 272 274 275 277 279 282 284 285 284 283 281 280 277 271 271 273 276 282 285 283 284 276 267 272 279 281 278 271 263 256 250 249 249 247 244 244 244 242 242 244 244 244 241 238 239 237 236 236 236 237 238 239 240 242 243 242 241 238 236 234 233 234 234 232 230 232 234 230 228 227 226 228 231 236 242 249 254
259 260 267 271 273 276 282 287 284 281 278 275 274 271 270 273 282 283 277 277 278 278 278 278 278 278 278 279 280 280 278 278 278 275 272 274 276 277 277 279 284 277 268 274 281 279 279 276 268 260 254 251 249 248 247 246 245 243 242 242 243 244 239 237 240 242 241 239 237 238 239 238 239 242 244 243 242 239 236 236 236 235 235 234 230 231 234 230 227 229 228 230 232 234 240 245 250
256 281 297 295 291 290 290 289 286 280 275 271 262 262 268 276 285 278 273 278 283 281 278 278 280 278 275 275 278 279 278 276 275 275 274 275 276 273 274 279 281 281 279 279 278 276 277 276 272 267 263 258 251 249 248 247 246 246 245 243 242 243 241 237 238 242 244 243 240 241 241 239 239 243 245 246 244 240 237 238 239 237 236 236 232 231 235 232 228 231 230 230 231 233 238 242 246
288 311 314 304 295 290 283 278 276 272 269 263 249 254 267 275 286 272 273 281 285 281 276 275 277 276 274 276 281 283 280 278 277 276 275 273 271 271 274 277 279 284 286 280 277 276 274 271 270 269 269 265 257 252 249 248 247 247 248 247 245 243 243 240 238 240 244 246 244 245 245 241 238 243 247 247 245 241 240 240 242 241 239 238 235 232 235 233 230 233 232 230 232 234 237 240 242
307 330 316 293 287 283 276 271 269 265 261 253 238 246 270 276 265 251 271 287 288 278 274 275 272 271 274 279 283 284 281 280 280 277 275 273 272 272 274 278 282 288 289 285 282 278 272 269 266 265 266 266 262 256 251 249 248 247 248 248 248 245 244 242 239 240 243 246 246 247 248 243 240 243 247 249 246 242 243 243 243 244 243 241 239 235 235 234 233 234 232 230 231 233 235 237 240
316 331 304 284 282 275 269 265 260 258 249 221 197 246 272 263 243 253 271 285 286 277 270 271 274 273 275 280 283 284 283 281 281 279 277 279 280 277 277 280 285 290 293 290 283 275 272 270 265 263 262 263 263 259 255 251 248 247 247 247 248 247 246 245 243 243 244 245 246 248 250 245 243 246 248 250 247 243 245 246 245 246 246 245 242 238 236 235 235 235 234 231 231 233 234 236 239
286 266 258 280 288 271 271 266 253 252 207 160 141 169 259 258 263 274 288 290 291 288 280 278 277 277 278 280 283 284 284 285 284 281 280 282 285 283 283 283 280 283 288 289 282 275 273 270 266 263 261 260 261 260 255 252 248 246 245 245 246 246 246 247 246 245 245 245 246 249 252 249 246 247 250 251 248 246 246 248 248 247 248 247 244 241 237 236 237 238 236 234 233 235 236 237 239
268 261 244 258 279 269 278 276 225 182 146 146 134 245 244 274 277 285 308 312 304 294 286 283 278 278 279 280 283 284 286 289 291 290 286 282 284 290 293 289 282 279 278 278 280 278 274 271 267 262 260 259 258 257 255 253 250 246 244 243 243 244 245 246 247 246 246 245 247 251 254 251 247 248 251 251 250 250 250 250 250 249 248 248 246 242 238 237 239 239 239 236 235 236 236 237 239
257 263 259 225 243 262 279 281 183 154 174 153 137 256 239 250 272 290 307 305 299 293 285 281 278 278 281 284 286 289 291 294 300 304 295 273 270 279 278 276 278 280 274 263 268 277 273 270 270 264 261 260 259 257 255 253 251 247 243 241 241 242 243 244 246 246 246 246 249 252 253 252 249 250 253 254 254 253 252 251 252 251 249 249 247 244 240 238 238 240 239 237 236 237 238 238 239
240 234 259 241 248 257 272 292 180 143 131 179 180 229 248 244 271 280 282 282 282 281 279 276 276 278 282 287 289 292 294 298 316 350 61 249 262 266 266 267 267 266 271 261 251 262 268 269 269 266 265 263 260 257 253 250 249 246 243 241 240 241 242 243 244 246 247 247 250 252 254 255 253 253 256 258 258 256 253 252 252 252 251 250 248 246 243 240 239 240 239 238 237 238 239 240 240
247 234 253 248 262 283 292 323 339 132 135 214 216 226 248 248 256 264 269 273 269 266 271 273 277 283 286 290 294 298 305 355 38 38 11 318 291 283 277 276 271 263 265 257 238 234 247 261 262 265 270 269 261 256 251 245 243 243 241 240 239 239 241 243 244 246 247 248 250 253 256 257 257 257 258 259 259 258 255 252 251 252 251 250 249 247 245 242 240 240 240 240 239 239 240 241 242
266 269 280 284 285 302 298 301 322 311 275 265 257 251 261 267 273 279 282 281 271 264 271 277 284 289 290 295 310 340 33 58 50 33 18 353 335 331 301 264 259 251 241 225 222 217 218 239 252 266 277 274 260 253 248 239 236 238 238 238 237 237 239 242 244 245 247 248 250 253 256 258 259 259 259 260 260 259 255 250 249 251 251 251 249 248 246 243 241 240 240 240 241 241 242 243 243
267 274 280 289 284 292 291 285 293 294 284 274 272 276 288 298 299 290 281 276 270 266 271 279 284 285 293 322 37 57 62 63 55 49 50 49 57 66 83 93 96 103 112 137 167 179 180 216 251 267 276 275 257 246 250 243 237 238 240 242 242 242 243 244 244 245 246 249 251 253 255 258 260 261 262 262 260 258 255 249 249 250 251 251 250 250 249 247 246 244 243 242 242 241 241 241 241
272 280 275 281 280 280 285 284 280 278 280 276 284 296 302 305 292 275 274 274 274 272 267 268 274 283 348 52 62 66 71 70 63 61 66 72 73 74 81 86 93 100 101 103 102 103 110 105 70 68 75 63 58 266 271 262 248 247 248 251 252 253 254 254 253 252 251 251 254 257 260 263 266 269 270 269 265 262 257 253 251 251 252 251 252 253 253 252 250 249 246 244 243 242 241 240 240
286 284 278 278 273 274 275 275 278 279 283 290 304 298 296 294 282 274 275 277 275 266 256 259 273 7 60 69 76 80 79 72 65 64 65 67 69 71 76 82 86 90 94 96 95 95 99 98 83 69 74 83 86 64 29 43 283 265 263 261 263 263 263 266 266 265 261 257 257 260 265 270 274 277 279 278 275 270 264 259 256 255 255 255 254 254 254 252 251 250 247 245 244 243 243 243 242
274 273 277 276 267 278 273 265 276 305 46 306 308 296 291 282 274 274 276 272 266 261 256 260 74 72 67 73 81 79 73 67 66 64 62 63 66 69 71 73 76 78 82 85 85 86 87 88 82 74 76 84 90 92 79 58 44 21 344 297 296 291 282 288 294 294 292 283 274 270 272 277 281 284 286 285 281 275 270 265 262 261 259 258 257 255 254 252 251 250 248 247 245 243 242 242 244
249 253 266 270 266 275 269 276 326 358 334 300 300 293 283 278 272 274 269 255 263 270 80 81 82 80 74 76 78 76 73 71 69 65 64 65 66 68 70 70 72 73 75 75 76 77 80 81 79 77 77 79 81 87 90 78 69 70 71 58 16 344 319 319 322 315 310 309 304 297 294 294 295 296 295 291 286 281 276 271 266 263 262 261 260 258 256 254 252 251 250 248 246 244 242 242 245
255 245 250 263 269 269 274 332 349 344 321 301 308 301 267 266 269 278 265 244 265 50 78 76 75 77 75 74 72 73 77 77 75 70 66 66 65 67 68 69 70 70 70 68 69 70 71 74 74 72 73 75 76 77 79 76 72 73 76 75 67 54 27 4 353 336 326 324 319 315 313 311 309 307 303 299 294 289 283 277 271 267 264 262 261 260 259 258 256 254 252 250 248 247 246 245 245
274 261 281 298 308 314 332 356 0 351 316 306 15 349 266 286 309 307 293 276 34 63 72 66 65 71 70 68 68 68 70 74 77 73 69 68 67 67 68 68 69 69 68 67 68 68 67 68 69 68 68 70 71 73 73 71 68 67 67 65 60 56 48 33 13 353 343 340 336 332 328 320 315 311 306 304 300 297 292 284 277 271 267 264 263 262 260 259 258 256 254 252 251 251 249 246 246
270 277 340 356 10 10 5 7 8 335 275 274 343 331 264 287 306 276 273 283 76 68 64 62 64 65 65 68 70 70 69 70 73 72 72 71 68 68 67 67 67 68 69 69 70 69 67 67 68 68 67 67 68 68 68 67 66 64 63 61 58 57 54 47 33 10 351 346 343 341 340 332 327 322 314 310 304 300 298 294 287 279 272 267 264 263 261 260 260 259 257 255 253 252 249 246 247
242 253 345 13 29 2 338 337 266 241 268 276 252 228 253 271 252 252 249 125 90 74 68 69 69 67 68 70 69 71 71 70 71 71 71 71 70 68 67 68 68 69 69 68 68 67 65 63 64 65 65 64 64 62 62 62 60 59 57 53 51 50 49 45 38 26 9 358 350 347 346 342 339 338 332 325 317 310 304 300 296 289 282 275 268 264 263 262 261 260 258 255 254 252 250 248 248
222 207 348 18 0 263 256 245 243 251 285 281 223 189 232 268 248 252 228 117 95 92 90 79 74 72 74 76 73 71 72 73 74 74 73 73 72 71 70 70 69 68 68 66 66 65 63 61 60 60 59 58 57 55 54 53 51 50 49 46 44 43 42 39 33 26 16 5 355 349 348 347 345 344 342 338 332 326 319 311 303 295 292 287 279 272 268 265 262 260 258 256 254 252 251 249 248
205 234 306 302 248 235 231 229 241 276 267 250 222 184 187 284 271 276 92 111 116 108 100 87 80 76 74 79 81 80 78 78 78 78 76 75 75 74 72 71 69 67 65 64 63 62 61 58 55 54 52 50 49 47 45 44 42 40 39 37 35 35 35 34 30 25 19 9 1 352 345 344 345 344 343 342 339 333 326 321 315 307 300 293 287 281 275 270 265 262 259 257 256 254 253 250 248
139 289 307 299 263 231 213 209 196 289 257 254 243 196 177 276 293 355 50 121 143 131 124 108 87 79 75 76 81 84 84 84 83 83 80 77 76 74 72 70 67 64 61 59 57 54 53 51 46 44 42 39 38 37 35 34 33 32 32 31 30 29 29 29 27 26 23 16 9 1 349 343 341 341 340 340 340 336 327 321 318 314 309 301 294 289 284 279 273 268 263 259 257 256 255 253 251
104 281 309 321 297 230 162 135 126 217 252 295 327 173 171 217 290 29 52 89 127 131 137 127 101 85 80 77 79 83 85 86 86 84 82 79 77 73 71 68 65 62 59 55 51 48 45 42 38 33 31 30 28 27 26 25 24 24 25 26 28 29 29 29 29 28 26 22 17 10 1 352 346 341 337 336 336 335 332 327 321 314 309 303 299 295 291 286 280 274 268 262 259 257 255 254 253
153 201 205 324 320 291 166 242 186 216 227 199 45 38 123 231 285 310 65 66 69 93 111 119 116 104 91 84 83 83 85 86 84 81 78 75 71 68 65 62 60 57 52 48 44 40 36 33 30 28 28 28 26 25 24 22 22 21 21 21 21 23 24 27 29 29 27 26 23 19 13 7 360 352 344 337 331 328 331 333 328 320 312 305 299 295 291 288 285 280 273 268 263 260 257 255 255
178 194 185 192 298 306 259 263 262 243 227 221 36 24 317 230 280 307 94 86 78 90 102 111 114 110 103 97 90 85 85 84 81 78 73 68 65 61 57 55 51 48 45 41 37 33 31 30 28 28 29 28 25 24 23 22 24 23 22 20 18 17 17 19 22 24 23 22 22 21 19 15 11 4 356 348 336 328 328 331 330 327 322 315 306 298 292 287 285 283 279 274 269 266 262 259 257
199 209 148 175 193 233 248 249 257 261 265 284 323 352 230 200 237 86 100 99 95 96 104 108 107 107 105 102 96 90 87 84 80 76 71 67 64 58 54 51 47 46 43 40 39 38 35 34 34 34 33 31 27 24 22 22 24 24 23 22 20 17 15 16 17 16 15 13 13 14 14 13 11 8 4 359 353 344 337 333 332 331 329 325 317 308 299 292 286 283 281 279 275 272 267 263 261
270 28 76 183 205 196 244 259 237 270 305 281 276 265 250 183 108 107 103 98 95 99 106 105 102 105 103 98 94 90 87 86 83 80 77 72 66 60 56 53 50 50 47 46 46 43 42 41 41 41 40 41 38 35 31 28 26 25 23 22 21 18 15 14 14 13 10 7 4 4 5 5 3 1 0 358 356 352 347 341 335 332 331 329 325 318 310 301 293 286 283 281 278 276 272 268 265
30 58 158 247 231 140 131 295 290 100 271 261 231 254 279 253 123 117 106 94 91 93 95 96 98 101 98 93 91 91 90 89 85 80 77 72 67 64 62 60 59 57 55 55 54 52 51 49 46 46 45 45 44 44 43 39 35 32 29 26 21 17 14 12 12 11 7 3 358 356 356 355 353 353 353 352 350 348 345 341 337 333 332 331 330 326 319 311 302 293 287 283 281 279 276 273 270
122 185 215 266 349 69 115 276 336 203 251 260 243 259 262 232 214 145 125 110 99 92 83 88 94 96 95 95 99 99 95 91 85 80 77 73 70 68 67 68 67 65 63 62 59 57 56 52 50 49 47 45 44 42 41 38 36 35 33 30 24 18 14 12 11 8 4 360 354 351 349 346 345 345 345 344 343 342 340 337 334 332 330 330 330 329 325 318 309 301 295 289 285 282 278 276 273
124 191 251 82 51 320 135 149 202 236 256 259 247 261 256 224 227 175 151 133 120 121 114 104 104 104 105 109 112 109 104 101 101 101 97 89 82 75 71 67 64 64 62 60 57 53 50 46 43 42 40 38 35 31 29 27 27 27 27 24 21 17 14 11 10 7 3 358 352 348 345 342 340 338 337 337 336 336 335 334 332 330 329 328 328 327 326 322 315 308 302 296 291 286 281 278 276
81 97 325 68 145 208 199 188 206 227 256 264 260 269 266 256 307 192 140 135 136 138 135 129 128 126 127 129 128 126 126 128 125 117 105 92 84 75 70 65 60 56 52 50 47 43 40 36 32 31 28 25 23 20 18 16 15 14 13 12 9 7 6 7 7 6 3 359 353 347 342 337 335 332 330 330 329 330 329 329 329 329 328 328 326 324 323 321 318 314 309 304 298 291 285 281 278
92 189 248 210 202 232 254 253 229 213 249 260 260 265 256 274 329 57 107 117 126 130 130 134 141 149 160 163 163 168 168 162 158 140 101 82 77 69 64 60 54 49 44 41 39 36 32 28 23 21 16 13 13 11 10 8 6 5 4 2 360 357 356 357 357 357 356 354 350 346 342 337 334 331 326 324 323 322 322 322 322 323 325 326 326 325 322 317 314 313 312 309 305 299 292 287 282
125 176 216 213 220 210 277 255 233 211 232 239 250 259 243 223 297 76 102 107 113 126 138 148 158 166 172 174 175 177 176 172 166 155 124 91 79 64 59 56 47 43 40 36 32 27 22 18 13 9 6 5 4 1 1 359 357 357 356 355 353 351 349 349 348 347 346 345 344 342 340 337 335 333 330 328 324 320 318 316 315 315 317 319 321 323 323 320 315 311 309 308 306 303 298 293 288